Tracking 20623 objects as of 4-Apr-2020
HD Live streaming from Space Station
objects crossing your sky now

DMSP 5D-2 F11 DEB

Track DMSP 5D-2 F11 DEB now!
10-day predictions


NORAD ID: 28349
Int'l Code: 1991-082BN
Perigee: 774.0 km
Apogee: 886.0 km
Inclination: 99.0 °
Period: 101.4 minutes
Semi major axis: 7201 km
RCS: 0.01 m2 (small)
Launch date: November 28, 1991
Source: United States (US)
Launch site: AIR FORCE WESTERN TEST RANGE (AFWTR)

Note: This is SATELLITE DEBRIS
aabbcc
Your satellite tracking list
Your tracking list is empty




NASA's NSSDC Master Catalog

Two Line Element Set (TLE):
1 28349U 91082BN  20094.23705069 +.00000977 +00000-0 +45940-3 0  9991
2 28349 098.9504 094.1457 0077790 116.1422 301.4719 14.20733414816425
Source of the keplerian elements: AFSPC